Schladming, Austria 16 day weather forecast

Slopes altitude range 740 m - 2015m

Number of lifts: 47 Pistes: 100km

In some cases the lift and piste totals shown are for the ski domain (e.g. Three Valleys) rather than individual resort (e.g. Courchevel)

Overview

The 16 day weather forecast is fully updated 4 times every day.

    • Mon 22 APR 2019
    • Mon 22
    • 6C 18C
    • Tue 23 APR 2019
    • Tue 23
    • 6C 12C
    • Wed 24 APR 2019
    • Wed 24
    • 7C 16C
    • Thu 25 APR 2019
    • Thu 25
    • 9C 17C
    • Fri 26 APR 2019
    • Fri 26
    • 9C 16C
    • Sat 27 APR 2019
    • Sat 27
    • 0C 4C
    • Sun 28 APR 2019
    • Sun 28
    • 4C 12C
    • Mon 29 APR 2019
    • Mon 29
    • 6C 14C
    • Tue 30 APR 2019
    • Tue 30
    • 8C 9C
    • Wed 01 MAY 2019
    • Wed 01
    • 7C 12C
    • Thu 02 MAY 2019
    • Thu 02
    • 2C 17C
    • Fri 03 MAY 2019
    • Fri 03
    • 3C 19C
    • Sat 04 MAY 2019
    • Sat 04
    • 5C 22C
    • Sun 05 MAY 2019
    • Sun 05
    • 9C 26C
    • Mon 06 MAY 2019
    • Mon 06
    • 9C 14C
    • Tue 07 MAY 2019
    • Tue 07
    • 5C 10C

Date:

Time Type 0°C level Temp Chill Snow Cloud Speed Gust Dir Press
3:00 3008m 3°C 3_6 0cm 83% 6mph 7mph 1016mB
6:00 3045m 3°C 3_6 0cm 91% 6mph 8mph 1014mB
9:00 3045m 6°C 6_3 0cm 92% 3mph 4mph 1011mB
12:00 2960m 18°C 18_3 0cm 95% 3mph 4mph 1009mB
15:00 3025m 18°C 18_3 0cm 66% 3mph 5mph 1007mB
18:00 2972m 18°C 18_6 0cm 33% 6mph 7mph 1007mB
21:00 3260m 4°C 4_8 0cm 1% 8mph 13mph 1008mB
0:00 3265m 3°C 3_9 0cm 46% 9mph 16mph 1007mB
3:00 3046m 2°C 2_10 0cm 96% 10mph 18mph 1005mB
6:00 2853m 2°C 2_10 0cm 95% 10mph 18mph 1004mB
9:00 2758m 6°C 6_10 0cm 100% 10mph 15mph 1003mB
12:00 2497m 12°C 12_11 0cm 100% 11mph 17mph 1003mB
15:00 2781m 11°C 11_10 0cm 100% 10mph 16mph 1003mB
18:00 2947m 11°C 11_9 0cm 100% 9mph 17mph 1004mB
21:00 3039m 5°C 5_9 0cm 100% 9mph 16mph 1006mB
0:00 3059m 5°C 5_9 0cm 100% 9mph 16mph 1006mB
3:00 3067m 5°C 5_7 0cm 100% 7mph 13mph 1007mB
6:00 3068m 4°C 4_8 0cm 99% 8mph 13mph 1008mB
9:00 3061m 7°C 7_8 0cm 2% 8mph 11mph 1009mB
12:00 2993m 16°C 16_7 0cm 3% 7mph 11mph 1009mB
15:00 3352m 16°C 16_7 0cm 96% 7mph 10mph 1009mB
18:00 3676m 16°C 16_7 0cm 89% 7mph 12mph 1010mB
21:00 3534m 7°C 7_7 0cm 100% 7mph 11mph 1014mB
0:00 2737m 4°C 4_1 0cm 100% 1mph 1mph 1016mB
3:00 3380m 4°C 4_6 0cm 100% 6mph 9mph 1017mB
6:00 3470m 4°C 4_8 0cm 98% 8mph 13mph 1016mB
9:00 3409m 8°C 8_8 0cm 5% 8mph 12mph 1015mB
12:00 3187m 17°C 17_7 0cm 2% 7mph 11mph 1013mB
15:00 3315m 17°C 17_7 0cm 4% 7mph 10mph 1013mB
18:00 3484m 17°C 17_6 0cm 34% 6mph 10mph 1014mB
21:00 3476m 7°C 7_7 0cm 87% 7mph 12mph 1015mB
0:00 3354m 7°C 7_8 0cm 93% 8mph 13mph 1014mB
3:00 3014m 7°C 7_8 0cm 100% 8mph 13mph 1013mB
6:00 3017m 6°C 6_7 0cm 98% 7mph 11mph 1013mB
9:00 2706m 9°C 9_3 0cm 51% 3mph 8mph 1013mB
12:00 2755m 16°C 16_8 0cm 74% 8mph 9mph 1014mB
15:00 1683m 11°C 11_10 4cm 99% 10mph 17mph 1017mB
18:00 1420m 11°C 11_2 4cm 100% 2mph 3mph 1020mB
21:00 1441m 0°C 0_2 3cm 100% 2mph 3mph 1023mB
0:00 1406m 0°C 0_3 2cm 100% 3mph 6mph 1023mB
3:00 1377m 0°C 0_3 1cm 99% 3mph 5mph 1024mB
6:00 1390m 0°C 0_4 2cm 100% 4mph 6mph 1025mB
9:00 1526m 0°C 0_4 1cm 100% 4mph 7mph 1025mB
12:00 1716m 4°C 4_3 0cm 97% 3mph 5mph 1024mB
15:00 1867m 4°C 4_3 0cm 97% 3mph 4mph 1023mB
18:00 1987m 5°C 5_3 0cm 60% 3mph 4mph 1025mB
21:00 1969m 2°C 2_3 0cm 95% 3mph 4mph 1027mB
0:00 2084m 1°C 1_4 0cm 96% 4mph 5mph 1027mB
3:00 2099m 0°C 0_4 0cm 83% 4mph 5mph 1026mB
6:00 2321m 0°C 0_3 0cm 91% 3mph 4mph 1024mB
9:00 2404m 4°C 4_2 0cm 99% 2mph 2mph 1023mB
12:00 2517m 12°C 12_4 0cm 99% 4mph 18mph 1021mB
15:00 2685m 13°C 13_4 0cm 92% 4mph 13mph 1020mB
18:00 2724m 13°C 13_1 0cm 90% 1mph 2mph 1021mB
21:00 2680m 4°C 4_3 0cm 92% 3mph 4mph 1022mB
0:00 2783m 3°C 3_4 0cm 90% 4mph 5mph 1021mB
3:00 2836m 2°C 2_4 0cm 98% 4mph 5mph 1019mB
6:00 2843m 2°C 2_3 0cm 99% 3mph 3mph 1016mB
9:00 2704m 6°C 6_1 0cm 100% 1mph 2mph 1014mB
12:00 2863m 14°C 14_2 0cm 100% 2mph 5mph 1010mB
15:00 2748m 20°C 20_2 0cm 100% 2mph 2mph 1006mB
18:00 2512m 20°C 20_7 0cm 89% 7mph 15mph 1006mB
21:00 2438m 12°C 12_3 0cm 91% 3mph 6mph 1007mB
0:00 2068m 11°C 11_6 0cm 95% 6mph 18mph 1006mB
3:00 1601m 8°C 8_10 0cm 100% 10mph 25mph 1006mB
6:00 1403m 8°C 8_12 0cm 100% 12mph 28mph 1007mB
9:00 1391m 8°C 8_16 0cm 100% 16mph 27mph 1008mB
12:00 1460m 9°C 9_11 0cm 100% 11mph 24mph 1009mB
15:00 1521m 9°C 9_7 0cm 100% 7mph 18mph 1009mB
18:00 1469m 9°C 9_9 0cm 100% 9mph 24mph 1010mB
21:00 1436m 5°C 5_9 0cm 49% 9mph 25mph 1013mB
0:00 1384m 5°C 5_8 0cm 33% 8mph 27mph 1013mB
3:00 1321m 4°C 4_8 0cm 13% 8mph 19mph 1014mB
6:00 1234m 3°C 3_10 0cm 10% 10mph 20mph 1014mB
9:00 1344m 7°C 7_11 0cm 37% 11mph 16mph 1013mB
12:00 1525m 12°C 12_9 0cm 47% 9mph 12mph 1012mB
15:00 1637m 12°C 12_7 0cm 80% 7mph 9mph 1011mB
18:00 1673m 12°C 12_4 0cm 74% 4mph 5mph 1012mB
21:00 1655m 5°C 5_5 0cm 5% 5mph 6mph 1014mB
0:00 1610m 4°C 4_6 0cm 3% 6mph 7mph 1014mB
Afternoon 0.0260417mm 0.3125 1877m 17°C 17_1 0cm 31% 1mph 2mph 1009mB
Morning 0.145833mm 1.6875 1997m 4°C 4_4 0cm 47% 4mph 4mph 1013mB
Afternoon 0mm 0 2280m 19°C 19_5 0cm 8% 5mph 8mph 1009mB
Morning 0mm 0 2815m 7°C 7_6 0cm 32% 6mph 10mph 1010mB
Afternoon 0mm 0 3128m 22°C 22_6 0cm 26% 6mph 11mph 1004mB
Morning 0mm 0 3299m 11°C 11_5 0cm 75% 5mph 11mph 1003mB
Afternoon 0mm 0 3499m 26°C 26_4 0cm 9% 4mph 10mph 1000mB
Morning 0mm 0 3237m 14°C 14_5 0cm 51% 5mph 13mph 994mB
Afternoon 0.619792mm 2.875 2126m 14°C 14_4 0cm 86% 4mph 7mph 1000mB
Morning 0.270833mm 2.6875 1562m 6°C 6_10 0cm 93% 10mph 32mph 1007mB
Afternoon 0.00520833mm 0.0625 1375m 10°C 10_10 0cm 98% 10mph 17mph 1014mB
Morning 0.0364583mm 0 1280m 3°C 3_4 0cm 89% 4mph 6mph 1021mB

16 day outlook at a glance

Forecast issued: 22/04/2019 08:09:39

Chat

Your comments and questions. In a resort? Let us know what it's like!


Characters left 250

For terms and conditions see Readers Comments on the Cookie and privacy policy page.